When you browse on this site, cookies collect data to enhance your experience and personalize the content and advertising you see.
Visit our Privacy Policy to learn more. By continuing to use the site, you agree to this use of cookies and data.
  • In Romania
  • List of Countries
  • For 7 days
  • Water Temperature
  • Satellite Maps
  • Weather Map
  • Weather Widgets
  • user-avatar
    Login

    Hourly Weather Zelenenkiy

    Today, 26 March, Tuesday

    Time Temperature Precipitation Wind Pressure Humidity
    00:00 -5°C° 0 mm 5 mps 750 mmHg 89%
    01:00 -5°C° 0 mm 5 mps 750 mmHg 90%
    02:00 -6°C° 0 mm 5 mps 751 mmHg 91%
    03:00 -5°C° 0 mm 4 mps 752 mmHg 92%
    04:00 -6°C° 0 mm 3 mps 752 mmHg 92%
    05:00 -6°C° 0 mm 3 mps 753 mmHg 93%
    06:00 -7°C° 0 mm 3 mps 753 mmHg 93%
    07:00 -5°C° 0 mm 3 mps 754 mmHg 92%
    08:00 -4°C° 0 mm 4 mps 754 mmHg 92%
    09:00 -3°C° 0 mm 4 mps 755 mmHg 91%
    10:00 -2°C° 0 mm 4 mps 755 mmHg 94%
    11:00 -2°C° 0 mm 4 mps 755 mmHg 96%
    12:00 -2°C° 0 mm 4 mps 756 mmHg 99%
    13:00 -1°C° 0 mm 4 mps 755 mmHg 98%
    14:00 -1°C° 0 mm 4 mps 755 mmHg 98%
    15:00 -1°C° 0 mm 4 mps 755 mmHg 98%
    16:00 -1°C° 0.2 mm 5 mps 755 mmHg 94%
    17:00 -2°C° 0.2 mm 6 mps 754 mmHg 91%
    18:00 -2°C° 0.2 mm 6 mps 754 mmHg 88%
    19:00 -1°C° 1 mm 7 mps 754 mmHg 90%
    20:00 -1°C° 1 mm 7 mps 754 mmHg 93%
    21:00 -1°C° 1 mm 8 mps 753 mmHg 95%
    22:00 -1°C° 0.9 mm 7 mps 754 mmHg 96%
    23:00 -1°C° 0.9 mm 7 mps 754 mmHg 97%

    Tomorrow, 27 March, Wednesday

    Time Temperature Precipitation Wind Pressure Humidity
    00:00 -1°C° 0.9 mm 6 mps 754 mmHg 98%
    01:00 0°C° 0.6 mm 5 mps 754 mmHg 98%
    02:00 0°C° 0.6 mm 5 mps 755 mmHg 98%
    03:00 0°C° 0.6 mm 4 mps 755 mmHg 99%
    04:00 -1°C° 0.4 mm 4 mps 755 mmHg 99%
    05:00 -1°C° 0.4 mm 4 mps 755 mmHg 99%
    06:00 0°C° 0.4 mm 3 mps 755 mmHg 99%
    07:00 -1°C° 0.7 mm 4 mps 755 mmHg 99%
    08:00 -1°C° 0.7 mm 4 mps 756 mmHg 99%
    09:00 -1°C° 0.7 mm 4 mps 756 mmHg 99%
    10:00 -1°C° 0.2 mm 4 mps 756 mmHg 99%
    11:00 0°C° 0.2 mm 4 mps 756 mmHg 99%
    12:00 0°C° 0.2 mm 4 mps 756 mmHg 99%
    13:00 0°C° 0 mm 4 mps 756 mmHg 98%
    14:00 0°C° 0 mm 4 mps 756 mmHg 97%
    15:00 0°C° 0 mm 4 mps 756 mmHg 96%
    16:00 0°C° 0 mm 4 mps 756 mmHg 92%
    17:00 0°C° 0 mm 4 mps 756 mmHg 89%
    18:00 -1°C° 0 mm 4 mps 756 mmHg 85%
    19:00 0°C° 0 mm 3 mps 756 mmHg 85%
    20:00 0°C° 0 mm 3 mps 756 mmHg 86%
    21:00 -1°C° 0 mm 3 mps 756 mmHg 86%
    22:00 -1°C° 0 mm 3 mps 756 mmHg 86%
    23:00 -2°C° 0 mm 4 mps 756 mmHg 85%

    Day after tomorrow, 28 March, Thursday

    Time Temperature Precipitation Wind Pressure Humidity
    00:00 -2°C° 0 mm 4 mps 755 mmHg 85%
    01:00 -1°C° 0 mm 3 mps 755 mmHg 85%
    02:00 -2°C° 0 mm 3 mps 755 mmHg 86%
    03:00 -2°C° 0 mm 2 mps 755 mmHg 86%
    04:00 -2°C° 0 mm 2 mps 755 mmHg 86%
    05:00 -2°C° 0 mm 2 mps 755 mmHg 86%
    06:00 -2°C° 0 mm 2 mps 755 mmHg 86%
    07:00 -2°C° 0 mm 2 mps 755 mmHg 88%
    08:00 -1°C° 0 mm 2 mps 754 mmHg 91%
    09:00 +1°C° 0 mm 2 mps 754 mmHg 93%
    10:00 +2°C° 0 mm 1 mps 754 mmHg 94%
    11:00 +3°C° 0 mm 1 mps 754 mmHg 95%
    12:00 +3°C° 0 mm 1 mps 754 mmHg 96%
    13:00 +3°C° 0 mm 1 mps 754 mmHg 96%
    14:00 +3°C° 0 mm 1 mps 753 mmHg 96%
    15:00 +3°C° 0 mm 1 mps 753 mmHg 95%
    16:00 +3°C° 0.2 mm 1 mps 753 mmHg 95%
    17:00 +1°C° 0.2 mm 2 mps 753 mmHg 94%
    18:00 0°C° 0.2 mm 3 mps 753 mmHg 94%
    19:00 +1°C° 0.2 mm 2 mps 752 mmHg 94%
    20:00 +1°C° 0.2 mm 2 mps 752 mmHg 94%
    21:00 +1°C° 0.2 mm 2 mps 752 mmHg 94%
    22:00 +1°C° 1 mm 2 mps 752 mmHg 94%
    23:00 -1°C° 1 mm 2 mps 751 mmHg 94%

    29 March, Friday

    Time Temperature Precipitation Wind Pressure Humidity
    00:00 -1°C° 1 mm 2 mps 751 mmHg 95%
    01:00 -1°C° 1.3 mm 2 mps 751 mmHg 95%
    02:00 -1°C° 1.3 mm 2 mps 751 mmHg 96%
    03:00 -1°C° 1.3 mm 3 mps 751 mmHg 97%
    04:00 -1°C° 0.2 mm 3 mps 751 mmHg 96%
    05:00 -1°C° 0.2 mm 3 mps 751 mmHg 95%
    06:00 -2°C° 0.2 mm 4 mps 751 mmHg 95%
    07:00 -1°C° 0.1 mm 3 mps 751 mmHg 96%
    08:00 -1°C° 0.1 mm 3 mps 751 mmHg 97%
    09:00 -1°C° 0.1 mm 3 mps 752 mmHg 97%
    10:00 -2°C° 0.4 mm 4 mps 752 mmHg 98%
    11:00 -2°C° 0.4 mm 4 mps 752 mmHg 98%
    12:00 -2°C° 0.4 mm 4 mps 752 mmHg 98%
    13:00 -2°C° 0.8 mm 5 mps 752 mmHg 97%
    14:00 -2°C° 0.8 mm 5 mps 752 mmHg 95%
    15:00 -3°C° 0.8 mm 6 mps 753 mmHg 94%
    16:00 -3°C° 0.7 mm 6 mps 753 mmHg 92%
    17:00 -3°C° 0.7 mm 7 mps 753 mmHg 91%
    18:00 -3°C° 0.7 mm 7 mps 753 mmHg 90%
    19:00 -3°C° 0.3 mm 7 mps 754 mmHg 89%
    20:00 -3°C° 0.3 mm 6 mps 754 mmHg 88%
    21:00 -4°C° 0.3 mm 6 mps 755 mmHg 88%
    22:00 -5°C° 0 mm 5 mps 755 mmHg 88%
    23:00 -6°C° 0 mm 5 mps 755 mmHg 88%

    30 March, Saturday

    Time Temperature Precipitation Wind Pressure Humidity
    00:00 -5°C° 0 mm 4 mps 755 mmHg 89%
    01:00 -7°C° 0 mm 4 mps 756 mmHg 90%
    02:00 -8°C° 0 mm 4 mps 756 mmHg 91%
    03:00 -8°C° 0 mm 4 mps 756 mmHg 92%
    04:00 -7°C° 0 mm 3 mps 756 mmHg 93%
    05:00 -7°C° 0 mm 3 mps 756 mmHg 93%
    06:00 -7°C° 0 mm 3 mps 757 mmHg 94%
    07:00 -7°C° 0 mm 4 mps 757 mmHg 93%
    08:00 -5°C° 0 mm 4 mps 757 mmHg 93%
    09:00 -5°C° 0 mm 5 mps 757 mmHg 92%
    10:00 -4°C° 0 mm 5 mps 756 mmHg 94%
    11:00 -2°C° 0 mm 5 mps 756 mmHg 95%
    12:00 -2°C° 0 mm 5 mps 756 mmHg 97%
    13:00 -1°C° 0.1 mm 5 mps 756 mmHg 97%
    14:00 -1°C° 0.1 mm 5 mps 756 mmHg 98%
    15:00 -1°C° 0.1 mm 5 mps 755 mmHg 98%
    16:00 -1°C° 0 mm 5 mps 755 mmHg 97%
    17:00 -1°C° 0 mm 5 mps 755 mmHg 97%
    18:00 -1°C° 0 mm 5 mps 755 mmHg 96%
    19:00 -1°C° 0 mm 5 mps 755 mmHg 96%
    20:00 -1°C° 0 mm 5 mps 755 mmHg 96%
    21:00 -1°C° 0 mm 5 mps 756 mmHg 97%
    22:00 -1°C° 0 mm 5 mps 756 mmHg 97%
    23:00 -1°C° 0 mm 4 mps 756 mmHg 97%

    31 March, Sunday

    Time Temperature Precipitation Wind Pressure Humidity
    00:00 -1°C° 0 mm 4 mps 755 mmHg 97%
    01:00 -1°C° 0 mm 4 mps 755 mmHg 97%
    02:00 -1°C° 0 mm 4 mps 756 mmHg 97%
    03:00 -1°C° 0 mm 4 mps 756 mmHg 98%
    04:00 -1°C° 0 mm 4 mps 756 mmHg 98%
    05:00 -1°C° 0 mm 4 mps 756 mmHg 98%
    06:00 -1°C° 0 mm 4 mps 756 mmHg 98%
    07:00 -1°C° 0 mm 4 mps 756 mmHg 98%
    08:00 0°C° 0 mm 4 mps 756 mmHg 98%
    09:00 +1°C° 0 mm 3 mps 757 mmHg 99%
    10:00 0°C° 0 mm 4 mps 757 mmHg 99%
    11:00 0°C° 0 mm 4 mps 757 mmHg 99%
    12:00 0°C° 0 mm 4 mps 757 mmHg 99%
    13:00 0°C° 0 mm 4 mps 757 mmHg 98%
    14:00 0°C° 0 mm 4 mps 757 mmHg 98%
    15:00 +1°C° 0 mm 4 mps 757 mmHg 98%
    16:00 0°C° 0 mm 4 mps 757 mmHg 98%
    17:00 +1°C° 0 mm 3 mps 757 mmHg 98%
    18:00 +1°C° 0 mm 3 mps 757 mmHg 98%
    19:00 0°C° 0 mm 4 mps 757 mmHg 98%
    20:00 0°C° 0 mm 4 mps 757 mmHg 98%
    21:00 0°C° 0 mm 4 mps 757 mmHg 98%
    22:00 0°C° 0 mm 4 mps 757 mmHg 98%
    23:00 0°C° 0 mm 4 mps 757 mmHg 98%
    Show more